TimeGMT,TemperatureF,Dew PointF,Humidity,Sea Level PressureIn,VisibilityMPH,Wind Direction,Wind SpeedMPH,Gust SpeedMPH,PrecipitationIn,Events,Conditions,WindDirDegrees,DateUTC
12:20 AM,37.4,32.0,81,29.95,5.0,Variable,3.5,-,N/A,Rain,Light Rain,0,2013-01-25 00:20:00
12:50 AM,37.4,32.0,81,29.92,5.0,SSE,5.8,-,N/A,Rain,Light Rain,160,2013-01-25 00:50:00
1:20 AM,37.4,32.0,81,29.92,6.2,South,6.9,-,N/A,,Overcast,170,2013-01-25 01:20:00
1:50 AM,37.4,32.0,81,29.92,5.6,South,9.2,-,N/A,,Overcast,170,2013-01-25 01:50:00
2:20 AM,37.4,32.0,81,29.89,6.2,SSE,10.4,-,N/A,,Overcast,160,2013-01-25 02:20:00
2:50 AM,37.4,32.0,81,29.89,6.2,SSE,10.4,-,N/A,,Overcast,160,2013-01-25 02:50:00
3:20 AM,37.4,30.2,75,29.89,6.2,SSE,5.8,-,N/A,,Overcast,160,2013-01-25 03:20:00
3:50 AM,37.4,30.2,75,29.89,6.2,SSE,8.1,-,N/A,,Overcast,160,2013-01-25 03:50:00
4:20 AM,37.4,28.4,70,29.86,6.2,SSE,10.4,-,N/A,,Overcast,160,2013-01-25 04:20:00
4:50 AM,35.6,28.4,75,29.86,6.2,SSE,11.5,-,N/A,Snow,Snow Grains,160,2013-01-25 04:50:00
5:20 AM,33.8,30.2,87,29.86,2.5,SSE,5.8,-,N/A,Rain-Snow,Light Rain,150,2013-01-25 05:20:00
5:50 AM,33.8,30.2,87,29.83,2.2,SE,6.9,-,N/A,Rain-Snow,Light Rain,140,2013-01-25 05:50:00
6:20 AM,33.8,30.2,87,29.83,3.1,ENE,4.6,-,N/A,Snow,Light Snow,70,2013-01-25 06:20:00
6:50 AM,33.8,30.2,87,29.83,2.8,ENE,4.6,-,N/A,Rain-Snow,Light Rain,70,2013-01-25 06:50:00
7:20 AM,33.8,32.0,93,29.80,3.1,Variable,3.5,-,N/A,Rain-Snow,Light Rain,0,2013-01-25 07:20:00
7:50 AM,33.8,32.0,93,29.80,3.7,Variable,2.3,-,N/A,Rain,Rain,0,2013-01-25 07:50:00
8:20 AM,33.8,32.0,93,29.77,3.1,Variable,2.3,-,N/A,Rain,Light Rain,0,2013-01-25 08:20:00
8:50 AM,33.8,32.0,93,29.77,3.1,Variable,3.5,-,N/A,Rain,Light Rain,0,2013-01-25 08:50:00
9:20 AM,33.8,32.0,93,29.77,5.0,ENE,4.6,-,N/A,Rain,Light Rain,70,2013-01-25 09:20:00
9:50 AM,35.6,32.0,87,29.74,6.2,East,6.9,-,N/A,Rain,Light Rain,100,2013-01-25 09:50:00
10:20 AM,35.6,32.0,87,29.74,6.2,East,9.2,-,N/A,Rain,Light Rain,90,2013-01-25 10:20:00
10:50 AM,35.6,30.2,81,29.74,6.2,SE,10.4,-,N/A,,Mostly Cloudy,130,2013-01-25 10:50:00
11:20 AM,35.6,32.0,87,29.71,4.3,ESE,9.2,-,N/A,Rain,Light Rain,120,2013-01-25 11:20:00
11:50 AM,35.6,32.0,87,29.68,6.2,East,8.1,-,N/A,,Overcast,100,2013-01-25 11:50:00
12:20 PM,35.6,32.0,87,29.65,6.2,ESE,10.4,-,N/A,,Overcast,120,2013-01-25 12:20:00
12:50 PM,35.6,32.0,87,29.65,3.1,ESE,9.2,-,N/A,Snow,Light Snow,110,2013-01-25 12:50:00
1:20 PM,33.8,32.0,93,29.62,4.3,ESE,6.9,-,N/A,Snow,Light Snow,110,2013-01-25 13:20:00
1:50 PM,33.8,32.0,93,29.59,1.9,East,6.9,-,N/A,Snow,Snow,100,2013-01-25 13:50:00
2:20 PM,35.6,32.0,87,29.56,3.7,East,8.1,-,N/A,Rain-Snow,Light Rain,100,2013-01-25 14:20:00
2:50 PM,35.6,32.0,87,29.53,3.7,ESE,8.1,-,N/A,Rain,Rain,110,2013-01-25 14:50:00
3:20 PM,35.6,32.0,87,29.53,-9999.0,ESE,8.1,-,N/A,Rain-Snow,Rain,110,2013-01-25 15:20:00
3:50 PM,33.8,32.0,93,29.50,1.9,ESE,8.1,-,N/A,Rain-Snow,Rain,110,2013-01-25 15:50:00
4:20 PM,32.0,32.0,100,29.50,1.1,East,8.1,-,N/A,Snow,Snow,80,2013-01-25 16:20:00
4:50 PM,33.8,32.0,93,29.47,1.9,East,8.1,-,N/A,Snow,Light Snow,80,2013-01-25 16:50:00
5:20 PM,33.8,32.0,93,29.47,2.5,East,6.9,-,N/A,Rain-Snow,Light Rain,80,2013-01-25 17:20:00
5:50 PM,33.8,32.0,93,29.44,2.5,ENE,6.9,-,N/A,Rain-Snow,Light Rain,60,2013-01-25 17:50:00
6:20 PM,33.8,32.0,93,29.44,2.5,ENE,8.1,-,N/A,Rain-Snow,Light Rain,60,2013-01-25 18:20:00
6:50 PM,33.8,32.0,93,29.42,3.7,ENE,9.2,-,N/A,Rain,Light Rain,60,2013-01-25 18:50:00
7:20 PM,33.8,32.0,93,29.42,4.3,ENE,6.9,-,N/A,Rain,Light Rain,60,2013-01-25 19:20:00
7:50 PM,33.8,32.0,93,29.42,3.7,ENE,5.8,-,N/A,Rain,Light Rain,60,2013-01-25 19:50:00
8:20 PM,33.8,33.8,100,29.42,5.0,NE,6.9,-,N/A,,Overcast,50,2013-01-25 20:20:00
8:50 PM,33.8,33.8,100,29.39,4.3,NE,5.8,-,N/A,,Overcast,40,2013-01-25 20:50:00
9:20 PM,35.6,33.8,93,29.39,5.6,NE,6.9,-,N/A,,Light Drizzle,50,2013-01-25 21:20:00
9:50 PM,35.6,33.8,93,29.39,3.7,NE,6.9,-,N/A,,Light Drizzle,50,2013-01-25 21:50:00
10:20 PM,35.6,33.8,93,29.39,2.8,NE,4.6,-,N/A,Rain,Light Rain,50,2013-01-25 22:20:00
10:50 PM,35.6,33.8,93,29.39,2.5,NE,4.6,-,N/A,Rain,Light Rain,40,2013-01-25 22:50:00
11:20 PM,33.8,33.8,100,29.39,2.2,NE,3.5,-,N/A,Rain,Light Rain,50,2013-01-25 23:20:00
11:50 PM,33.8,33.8,100,29.42,1.9,Variable,2.3,-,N/A,Rain,Light Rain,0,2013-01-25 23:50:00